Torna al catalogo

METEOR 2-11 DEB

AttivoPO
NORAD 40703·DEBRIS·🇷🇺 Russia

Lanciato Jul 5, 1984 da Plesetsk Cosmodrome

Loading…

Prossimi Passaggi (prossime 24 ore)

TLE

ObsoletoSource: Space-Track

Epoca: Aug 23, 2026, 22:27 UTC

1 40703U 84072E   26235.93565636  .00001913  00000-0  13577-2 0  9995
2 40703  82.5125 313.4782 0008435 131.3840 228.8054 13.97162391578727

Traccia METEOR 2-11 DEB in tempo reale con AllMySat

Download on the App Store